TimeEDT,TemperatureF,Dew PointF,Humidity,Sea Level PressureIn,VisibilityMPH,Wind Direction,Wind SpeedMPH,Gust SpeedMPH,PrecipitationIn,Events,Conditions,WindDirDegrees,DateUTC
12:51 AM,21.9,16.0,78,29.70,10.0,West,4.6,-,N/A,,Clear,280,2013-03-22 04:51:00
1:51 AM,19.0,15.1,85,29.70,10.0,Calm,Calm,-,N/A,,Clear,0,2013-03-22 05:51:00
2:51 AM,14.0,12.9,95,29.70,10.0,SSW,3.5,-,N/A,,Clear,210,2013-03-22 06:51:00
3:51 AM,12.0,10.0,92,29.70,10.0,Calm,Calm,-,N/A,,Clear,0,2013-03-22 07:51:00
4:51 AM,10.9,10.0,96,29.70,10.0,Calm,Calm,-,N/A,,Clear,0,2013-03-22 08:51:00
5:26 AM,10.4,8.6,92,29.64,10.0,Calm,Calm,-,N/A,,Mostly Cloudy,0,2013-03-22 09:26:00
5:40 AM,10.4,10.4,100,29.64,10.0,South,3.5,-,N/A,,Scattered Clouds,170,2013-03-22 09:40:00
5:51 AM,10.9,9.0,92,29.70,10.0,Calm,Calm,-,N/A,,Scattered Clouds,0,2013-03-22 09:51:00
6:51 AM,9.0,8.1,96,29.71,10.0,Calm,Calm,-,N/A,,Clear,0,2013-03-22 10:51:00
7:51 AM,12.0,10.9,95,29.72,5.0,South,3.5,-,N/A,,Clear,180,2013-03-22 11:51:00
8:51 AM,15.1,14.0,95,29.73,10.0,Calm,Calm,-,N/A,,Clear,0,2013-03-22 12:51:00
9:51 AM,21.9,16.0,78,29.72,10.0,NE,3.5,-,N/A,,Clear,50,2013-03-22 13:51:00
10:51 AM,26.1,15.1,63,29.71,10.0,NE,4.6,-,N/A,,Clear,50,2013-03-22 14:51:00
11:51 AM,28.0,16.0,61,29.70,10.0,North,5.8,-,N/A,,Mostly Cloudy,360,2013-03-22 15:51:00
12:51 PM,30.0,14.0,51,29.69,10.0,Calm,Calm,-,0.00,,Overcast,0,2013-03-22 16:51:00
1:49 PM,28.4,17.6,64,29.64,1.8,WNW,6.9,-,0.00,Snow,Light Snow,300,2013-03-22 17:49:00
1:51 PM,28.0,18.0,66,29.70,1.5,NW,3.5,-,0.00,Snow,Light Snow,320,2013-03-22 17:51:00
1:58 PM,28.4,17.6,64,29.64,3.0,WNW,8.1,-,0.00,Snow,Light Snow,300,2013-03-22 17:58:00
2:09 PM,28.4,19.4,69,29.64,2.0,NNW,5.8,16.1,0.00,Snow,Light Snow,330,2013-03-22 18:09:00
2:18 PM,30.2,19.4,64,29.63,4.0,North,10.4,-,0.00,Snow,Light Snow,360,2013-03-22 18:18:00
2:27 PM,28.4,17.6,64,29.63,1.8,North,8.1,-,0.00,Snow,Light Snow,350,2013-03-22 18:27:00
2:31 PM,28.4,19.4,69,29.63,3.0,NNW,6.9,-,0.00,Snow,Light Snow,340,2013-03-22 18:31:00
2:51 PM,30.0,17.1,59,29.69,10.0,NW,4.6,-,0.00,,Overcast,320,2013-03-22 18:51:00
3:51 PM,30.9,16.0,54,29.69,10.0,NW,8.1,-,N/A,,Overcast,310,2013-03-22 19:51:00
4:51 PM,30.0,17.1,59,29.70,10.0,NNW,9.2,-,N/A,,Overcast,340,2013-03-22 20:51:00
5:29 PM,28.4,21.2,74,29.65,1.8,NW,4.6,-,0.00,Snow,Light Snow,320,2013-03-22 21:29:00
5:38 PM,28.4,21.2,74,29.65,3.0,NW,5.8,-,0.00,Snow,Light Snow,320,2013-03-22 21:38:00
5:51 PM,28.0,19.9,72,29.71,10.0,NW,9.2,-,0.00,,Overcast,320,2013-03-22 21:51:00
6:51 PM,27.0,19.0,72,29.74,10.0,NW,5.8,-,0.00,,Overcast,310,2013-03-22 22:51:00
7:32 PM,26.6,21.2,80,29.70,2.0,NW,13.8,24.2,0.00,Snow,Light Snow,310,2013-03-22 23:32:00
7:35 PM,24.8,21.2,86,29.70,1.2,NW,13.8,24.2,0.00,Snow,Light Snow,310,2013-03-22 23:35:00
7:44 PM,24.8,21.2,86,29.70,2.0,NW,13.8,20.7,0.00,Snow,Light Snow,310,2013-03-22 23:44:00
7:51 PM,25.0,19.9,81,29.76,7.0,NW,12.7,21.9,0.00,Snow,Light Snow,310,2013-03-22 23:51:00
8:51 PM,23.0,18.0,81,29.80,10.0,NW,9.2,18.4,0.00,,Mostly Cloudy,310,2013-03-23 00:51:00
9:51 PM,21.9,17.1,82,29.78,10.0,NW,5.8,-,N/A,,Overcast,310,2013-03-23 01:51:00
10:03 PM,21.2,17.6,86,29.72,8.0,Calm,Calm,-,0.00,Snow,Light Snow,0,2013-03-23 02:03:00
10:51 PM,23.0,19.0,85,29.77,9.0,Calm,Calm,-,0.00,,Overcast,0,2013-03-23 02:51:00
11:13 PM,21.2,19.4,93,29.72,10.0,NNW,3.5,-,N/A,,Overcast,340,2013-03-23 03:13:00
11:37 PM,23.0,19.4,86,29.72,7.0,Calm,Calm,-,0.00,Snow,Light Snow,0,2013-03-23 03:37:00
11:51 PM,23.0,19.0,85,29.77,9.0,WNW,3.5,-,0.00,,Overcast,290,2013-03-23 03:51:00